TimeAKDT,TemperatureF,Dew PointF,Humidity,Sea Level PressureIn,VisibilityMPH,Wind Direction,Wind SpeedMPH,Gust SpeedMPH,PrecipitationIn,Events,Conditions,WindDirDegrees,DateUTC
12:16 AM,53.6,42.8,67,29.98,10.0,SSW,6.9,-,N/A,,Overcast,200,2012-09-14 08:16:00
12:36 AM,53.6,44.6,72,29.99,10.0,SW,6.9,-,N/A,,Overcast,230,2012-09-14 08:36:00
12:56 AM,53.6,42.8,67,30.01,10.0,SSW,9.2,16.1,N/A,,Overcast,210,2012-09-14 08:56:00
1:16 AM,53.6,42.8,67,30.01,10.0,SSW,8.1,17.3,N/A,,Overcast,210,2012-09-14 09:16:00
1:36 AM,53.6,44.6,72,30.02,10.0,SW,9.2,-,N/A,,Overcast,220,2012-09-14 09:36:00
1:56 AM,53.6,42.8,67,30.03,10.0,SSW,9.2,20.7,N/A,,Overcast,210,2012-09-14 09:56:00
2:16 AM,51.8,44.6,76,30.04,10.0,SSW,6.9,-,N/A,,Overcast,210,2012-09-14 10:16:00
2:36 AM,53.6,42.8,67,30.05,10.0,SSW,6.9,17.3,N/A,,Overcast,200,2012-09-14 10:36:00
2:56 AM,53.6,42.8,67,30.06,10.0,South,12.7,19.6,N/A,,Mostly Cloudy,190,2012-09-14 10:56:00
3:16 AM,53.6,42.8,67,30.07,10.0,SSW,12.7,19.6,N/A,,Mostly Cloudy,200,2012-09-14 11:16:00
3:36 AM,53.6,41.0,62,30.07,10.0,SSW,11.5,18.4,N/A,,Overcast,210,2012-09-14 11:36:00
3:56 AM,51.8,41.0,67,30.08,10.0,SW,13.8,-,N/A,,Mostly Cloudy,220,2012-09-14 11:56:00
4:16 AM,53.6,42.8,67,30.09,10.0,SSW,10.4,17.3,N/A,,Overcast,200,2012-09-14 12:16:00
4:36 AM,53.6,42.8,67,30.10,10.0,SW,6.9,-,N/A,,Mostly Cloudy,220,2012-09-14 12:36:00
4:56 AM,51.8,42.8,71,30.10,10.0,SSW,10.4,-,N/A,,Overcast,200,2012-09-14 12:56:00
5:16 AM,51.8,42.8,71,30.11,10.0,SW,8.1,-,N/A,,Overcast,220,2012-09-14 13:16:00
5:36 AM,51.8,42.8,71,30.11,10.0,SSW,8.1,17.3,N/A,,Overcast,210,2012-09-14 13:36:00
5:56 AM,53.6,42.8,67,30.12,10.0,WNW,3.5,-,N/A,,Overcast,290,2012-09-14 13:56:00
6:16 AM,53.6,42.8,67,30.12,10.0,SSW,5.8,-,N/A,,Overcast,200,2012-09-14 14:16:00
6:36 AM,51.8,42.8,71,30.13,10.0,SW,4.6,17.3,N/A,,Overcast,220,2012-09-14 14:36:00
6:56 AM,51.8,42.8,71,30.14,10.0,Calm,Calm,-,N/A,,Overcast,0,2012-09-14 14:56:00
7:16 AM,51.8,44.6,76,30.15,10.0,ENE,4.6,-,N/A,,Overcast,70,2012-09-14 15:16:00
7:36 AM,50.0,44.6,82,30.16,10.0,ESE,4.6,-,N/A,,Overcast,110,2012-09-14 15:36:00
7:56 AM,50.0,44.6,82,30.17,10.0,Calm,Calm,-,N/A,,Overcast,0,2012-09-14 15:56:00
8:16 AM,51.8,44.6,76,30.17,10.0,Calm,Calm,-,N/A,,Overcast,0,2012-09-14 16:16:00
8:36 AM,51.8,44.6,76,30.18,10.0,Calm,Calm,-,N/A,,Overcast,0,2012-09-14 16:36:00
8:56 AM,51.8,44.6,76,30.19,10.0,NNE,6.9,-,N/A,,Overcast,30,2012-09-14 16:56:00
9:16 AM,50.0,44.6,82,30.19,10.0,East,6.9,-,N/A,,Overcast,100,2012-09-14 17:16:00
9:36 AM,51.8,44.6,76,30.20,10.0,SE,3.5,-,N/A,,Overcast,140,2012-09-14 17:36:00
9:56 AM,51.8,44.6,76,30.21,10.0,ENE,3.5,-,N/A,,Overcast,60,2012-09-14 17:56:00
10:16 AM,51.8,44.6,76,30.21,10.0,ESE,5.8,-,N/A,,Overcast,110,2012-09-14 18:16:00
10:36 AM,51.8,44.6,76,30.22,10.0,East,4.6,-,N/A,,Overcast,100,2012-09-14 18:36:00
10:56 AM,51.8,46.4,82,30.23,10.0,ESE,5.8,-,N/A,,Overcast,110,2012-09-14 18:56:00
11:16 AM,51.8,46.4,82,30.23,10.0,East,6.9,-,N/A,,Overcast,100,2012-09-14 19:16:00
11:36 AM,51.8,46.4,82,30.23,10.0,East,6.9,-,N/A,,Overcast,90,2012-09-14 19:36:00
11:56 AM,53.6,46.4,77,30.24,10.0,East,4.6,-,N/A,,Overcast,80,2012-09-14 19:56:00
12:16 PM,53.6,46.4,77,30.24,10.0,East,6.9,-,N/A,,Overcast,80,2012-09-14 20:16:00
12:36 PM,53.6,46.4,77,30.25,10.0,SE,4.6,-,N/A,,Overcast,130,2012-09-14 20:36:00
12:56 PM,53.6,46.4,77,30.25,10.0,South,5.8,-,N/A,,Overcast,170,2012-09-14 20:56:00
1:16 PM,55.4,44.6,67,30.25,10.0,South,6.9,-,N/A,,Overcast,190,2012-09-14 21:16:00
1:36 PM,55.4,44.6,67,30.25,10.0,SW,3.5,-,N/A,,Overcast,220,2012-09-14 21:36:00
1:56 PM,55.4,44.6,67,30.25,10.0,SW,6.9,-,N/A,,Overcast,230,2012-09-14 21:56:00
2:16 PM,55.4,46.4,72,30.25,10.0,ENE,5.8,-,N/A,,Overcast,60,2012-09-14 22:16:00
2:36 PM,51.8,44.6,76,30.26,10.0,NNE,5.8,-,N/A,,Overcast,20,2012-09-14 22:36:00
2:56 PM,51.8,46.4,82,30.26,10.0,Calm,Calm,-,N/A,,Overcast,0,2012-09-14 22:56:00
3:16 PM,51.8,46.4,82,30.26,10.0,SE,4.6,-,N/A,,Overcast,130,2012-09-14 23:16:00
3:36 PM,51.8,46.4,82,30.26,10.0,SSE,3.5,-,N/A,,Overcast,150,2012-09-14 23:36:00
3:56 PM,51.8,48.2,88,30.26,10.0,ENE,3.5,-,N/A,,Overcast,70,2012-09-14 23:56:00
4:16 PM,51.8,46.4,82,30.26,10.0,East,3.5,-,N/A,,Overcast,100,2012-09-15 00:16:00
4:36 PM,51.8,46.4,82,30.26,10.0,ESE,3.5,-,N/A,,Overcast,110,2012-09-15 00:36:00
4:56 PM,51.8,46.4,82,30.26,10.0,Calm,Calm,-,N/A,,Overcast,0,2012-09-15 00:56:00
5:16 PM,51.8,48.2,88,30.26,10.0,ENE,5.8,-,N/A,,Overcast,70,2012-09-15 01:16:00
5:36 PM,51.8,46.4,82,30.26,10.0,East,5.8,-,N/A,,Overcast,90,2012-09-15 01:36:00
5:56 PM,51.8,46.4,82,30.26,10.0,East,5.8,-,N/A,,Overcast,100,2012-09-15 01:56:00
6:16 PM,51.8,46.4,82,30.27,10.0,ESE,4.6,-,N/A,,Overcast,110,2012-09-15 02:16:00
6:36 PM,51.8,46.4,82,30.27,10.0,Calm,Calm,-,N/A,,Overcast,0,2012-09-15 02:36:00
6:56 PM,51.8,46.4,82,30.27,10.0,SSW,3.5,-,N/A,,Mostly Cloudy,210,2012-09-15 02:56:00
7:16 PM,51.8,46.4,82,30.27,10.0,Calm,Calm,-,N/A,,Mostly Cloudy,0,2012-09-15 03:16:00
7:36 PM,51.8,46.4,82,30.28,10.0,Calm,Calm,-,N/A,,Mostly Cloudy,0,2012-09-15 03:36:00
7:56 PM,51.8,46.4,82,30.29,10.0,East,3.5,-,N/A,,Overcast,100,2012-09-15 03:56:00
8:16 PM,50.0,46.4,87,30.29,10.0,ESE,4.6,-,N/A,,Overcast,120,2012-09-15 04:16:00
8:36 PM,50.0,46.4,87,30.29,10.0,SE,4.6,-,N/A,,Overcast,130,2012-09-15 04:36:00
8:56 PM,50.0,46.4,87,30.29,10.0,ESE,4.6,-,N/A,,Overcast,120,2012-09-15 04:56:00
9:16 PM,48.2,46.4,93,30.30,10.0,ESE,4.6,-,N/A,,Overcast,120,2012-09-15 05:16:00
9:36 PM,48.2,46.4,93,30.30,10.0,ESE,4.6,-,N/A,,Overcast,110,2012-09-15 05:36:00
9:56 PM,48.2,46.4,93,30.30,10.0,ESE,6.9,-,N/A,,Overcast,110,2012-09-15 05:56:00
10:16 PM,48.2,46.4,93,30.31,10.0,ESE,6.9,-,N/A,,Overcast,110,2012-09-15 06:16:00
10:36 PM,48.2,44.6,87,30.31,10.0,East,4.6,-,N/A,,Overcast,100,2012-09-15 06:36:00
10:56 PM,48.2,44.6,87,30.31,10.0,East,4.6,-,N/A,,Overcast,100,2012-09-15 06:56:00
11:16 PM,48.2,44.6,87,30.31,10.0,East,3.5,-,N/A,,Mostly Cloudy,80,2012-09-15 07:16:00
11:36 PM,48.2,44.6,87,30.32,10.0,Calm,Calm,-,N/A,,Overcast,0,2012-09-15 07:36:00
11:56 PM,48.2,44.6,87,30.32,10.0,Calm,Calm,-,N/A,,Overcast,0,2012-09-15 07:56:00